EW4264 Weather Reports


Display with metric or nautical units.
time (UTC)temp
F
wind
direction
speed
MPH
gust
MPH
rain 1hr
in
rain 24hr
in
rain mn
in
humidity
%
barometer
mb
20220707110026 73 89 0.0 0.0 0.00 0.00 0.00 90 989.8
20220707104523 73 79 0.0 0.0 0.00 0.00 0.00 89 989.6
20220707103022 74 79 0.0 0.0 0.00 0.00 0.00 89 989.6
20220707101534 74 80 0.0 0.0 0.00 0.00 0.00 88 989.5
20220707100031 74 86 0.0 1.0 0.00 0.00 0.00 88 989.5
20220707094518 74 93 0.0 1.0 0.00 0.00 0.00 87 989.5
20220707093015 75 93 0.0 1.0 0.00 0.00 0.00 87 989.4
20220707091514 75 306 0.0 1.0 0.00 0.00 0.00 87 989.3
20220707090023 75 91 0.0 1.0 0.00 0.00 0.00 86 989.3
20220707084512 76 32 0.0 1.0 0.00 0.00 0.00 85 989.3
20220707083011 76 25 0.0 1.0 0.00 0.00 0.00 85 989.2
20220707081510 76 80 0.0 4.0 0.00 0.00 0.00 84 989.3
20220707080012 76 112 0.0 2.0 0.00 0.00 0.00 83 989.1
20220707074506 77 6 0.0 2.0 0.00 0.00 0.00 82 989.2
20220707073006 77 47 0.0 1.0 0.00 0.00 0.00 81 989.3
20220707071508 77 1 0.0 1.0 0.00 0.00 0.00 80 989.4
20220707070100 78 68 0.0 1.0 0.00 0.00 0.00 79 989.3
20220707064604 78 356 0.0 1.0 0.00 0.00 0.00 77 989.2
20220707063056 79 356 0.0 1.0 0.00 0.00 0.00 76 989.2
20220707061554 79 6 0.0 2.0 0.00 0.00 0.00 75 989.3
20220707060052 80 79 0.0 3.0 0.00 0.00 0.00 74 989.3
20220707054551 80 31 0.0 1.0 0.00 0.00 0.00 73 989.3
20220707053103 80 20 0.0 2.0 0.00 0.00 0.00 71 989.0
20220707051557 81 99 0.0 1.0 0.00 0.00 0.00 69 989.0
20220707050043 82 10 0.0 1.0 0.00 0.00 0.00 68 988.9
20220707044542 82 6 0.0 2.0 0.00 0.00 0.00 66 988.9
20220707043041 83 20 0.0 3.0 0.00 0.00 0.00 65 988.8
20220707041540 83 88 0.0 1.0 0.00 0.00 0.00 63 988.7
20220707040039 84 47 0.0 2.0 0.00 0.00 0.00 61 988.5
20220707034538 85 105 0.0 4.0 0.00 0.00 0.00 60 988.2
20220707033044 85 52 0.0 4.0 0.00 0.00 0.00 59 988.0
20220707031538 86 343 0.0 4.0 0.00 0.00 0.00 58 987.7
20220707030050 87 77 0.0 2.0 0.00 0.00 0.00 56 987.5
20220707024537 87 19 0.0 2.0 0.00 0.00 0.00 53 987.2
20220707023036 87 88 0.0 1.0 0.00 0.00 0.00 53 986.9
20220707021539 88 6 0.0 1.0 0.00 0.00 0.00 52 986.8
20220707020035 89 129 0.0 0.0 0.00 0.00 0.00 50 986.8
20220707014535 89 129 0.0 2.0 0.00 0.00 0.00 49 986.8
20220707013034 90 84 0.0 1.0 0.00 0.00 0.00 47 986.7
20220707011533 91 297 0.0 1.0 0.00 0.00 0.00 45 986.6
20220707010037 91 227 0.0 1.0 0.00 0.00 0.00 44 986.6
20220707004533 92 13 0.0 1.0 0.00 0.00 0.00 43 986.6
20220707003032 92 50 0.0 2.0 0.00 0.00 0.00 42 986.6
20220707001532 93 67 0.0 2.0 0.00 0.00 0.00 41 986.5
20220707000034 93 59 0.0 2.0 0.00 0.00 0.00 41 986.5
20220706234530 94 6 0.0 2.0 0.00 0.00 0.00 40 986.5
20220706233030 95 35 0.0 1.0 0.00 0.00 0.00 40 986.7
20220706231528 95 109 0.0 3.0 0.00 0.00 0.00 40 986.7
20220706230027 95 101 0.0 2.0 0.00 0.00 0.00 39 986.9
20220706224529 96 337 0.0 3.0 0.00 0.00 0.00 40 987.0
20220706223028 96 1 0.0 2.0 0.00 0.00 0.00 39 987.1
20220706221528 96 124 0.0 4.0 0.00 0.00 0.00 39 987.2
20220706220029 97 230 0.0 3.0 0.00 0.00 0.00 38 987.3
20220706214529 97 87 0.0 1.0 0.00 0.00 0.00 38 987.3
20220706213019 97 162 0.0 4.0 0.00 0.00 0.00 36 987.4
20220706211519 98 356 1.0 4.0 0.00 0.00 0.00 37 987.6
20220706210016 97 332 0.0 2.0 0.00 0.00 0.00 38 987.7
20220706204514 96 1 0.0 4.0 0.00 0.00 0.00 38 988.0
20220706203010 96 66 1.0 4.0 0.00 0.00 0.00 38 988.1
20220706201509 96 95 0.0 4.0 0.00 0.00 0.00 37 988.2
20220706200008 96 74 0.0 3.0 0.00 0.00 0.00 37 988.3
20220706194506 96 75 1.0 3.0 0.00 0.00 0.00 39 988.6
20220706193001 95 74 0.0 3.0 0.00 0.00 0.00 39 988.7
20220706191600 95 97 1.0 5.0 0.00 0.00 0.00 39 988.8
20220706190108 94 38 1.0 8.0 0.00 0.00 0.00 41 988.9
20220706184559 94 78 0.0 4.0 0.00 0.00 0.00 45 989.1
20220706183102 93 122 0.0 4.0 0.00 0.00 0.00 43 989.4
20220706181549 93 160 0.0 4.0 0.00 0.00 0.00 45 989.5
20220706180056 92 190 0.0 2.0 0.00 0.00 0.00 47 989.6
20220706174546 91 1 0.0 3.0 0.00 0.00 0.00 49 989.7
20220706173040 90 99 0.0 6.0 0.00 0.00 0.00 51 989.9
20220706171538 89 68 2.0 4.0 0.00 0.00 0.00 52 990.0
20220706170036 89 58 1.0 3.0 0.00 0.00 0.00 53 990.1
20220706164535 87 82 0.0 3.0 0.00 0.00 0.00 56 990.1
20220706163033 87 67 0.0 4.0 0.00 0.00 0.00 57 990.3
20220706161526 85 87 1.0 6.0 0.00 0.00 0.00 60 990.5
20220706160034 84 78 1.0 4.0 0.00 0.00 0.00 60 990.6
20220706154521 83 88 2.0 6.0 0.00 0.00 0.00 63 990.5
20220706153018 82 106 2.0 7.0 0.00 0.00 0.00 66 990.3
20220706151530 81 321 0.0 3.0 0.00 0.00 0.00 71 990.4
20220706150015 80 97 2.0 4.0 0.00 0.00 0.00 73 990.6
20220706144519 79 91 0.0 4.0 0.00 0.00 0.00 77 990.6
20220706143011 78 20 0.0 2.0 0.00 0.00 0.00 79 990.6
20220706141507 77 87 1.0 6.0 0.00 0.00 0.00 81 990.6
20220706140012 76 86 0.0 4.0 0.00 0.00 0.00 84 990.3
20220706134508 76 86 0.0 2.0 0.00 0.00 0.00 87 990.3
20220706133002 75 55 0.0 2.0 0.00 0.00 0.00 89 990.2
20220706131559 74 80 0.0 3.0 0.00 0.00 0.00 91 990.1
20220706130100 74 93 0.0 1.0 0.00 0.00 0.00 92 990.0
20220706124605 74 6 0.0 1.0 0.00 0.00 0.00 92 989.9
20220706123058 73 66 0.0 1.0 0.00 0.00 0.00 92 989.9
20220706121602 73 150 0.0 0.0 0.00 0.00 0.00 93 990.0
20220706120112 73 43 0.0 0.0 0.00 0.00 0.00 93 990.0
20220706114557 73 43 0.0 0.0 0.00 0.00 0.00 93 990.2
20220706113053 73 43 0.0 0.0 0.00 0.00 0.00 93 990.0
20220706111552 73 43 0.0 0.0 0.00 0.00 0.00 93 989.8